Check out our new BloomSky Weather System.

Active alerts

Houston, TX
  Details for Houston, TX Dense Fog Advisory


Thunder radar  blitzortung!


Rain radar more information rain snow radar


Visit our other weather sites:

Template documentation
and downloads

And another site



Weather Underground History page Text

Daily Summary for June 12, 2017 Units:  Metric    English   Both
« Previous Day
Next Day »
Daily Weekly Monthly Yearly Custom
  High: Low: Average:
Temperature: 32.9 °C 25.3 °C 28.8 °C
Dew Point: 25.9 °C 23.2 °C 24.8 °C
Humidity: 96 % 61 % 80 %
Wind Speed: 19.3 km/h 0 km/h 5.8 km/h
Wind Gust: 27.4 km/h - -
Wind:- - SE
Pressure: 1013.8 hPa 1011.1 hPa -
Precipitation: 0 mm    
Historical Graphs
 
 
Tabular Data for June 12, 2017
Time Temperature Dew Point Pressure Wind Wind Speed Wind Gust Humidity Rainfall Rate (Hourly)
00:02 26.8 °C 25 °C 1013.1 hPa SE 3.2 km/h 8 km/h 90 % 0 mm
00:07 26.8 °C 25 °C 1013.1 hPa ESE 3.2 km/h 8 km/h 90 % 0 mm
00:12 26.8 °C 25 °C 1013.4 hPa SE 3.2 km/h 8 km/h 90 % 0 mm
00:17 26.8 °C 25 °C 1013.4 hPa SSE 4.8 km/h 8 km/h 90 % 0 mm
00:22 26.8 °C 25 °C 1013.4 hPa East 3.2 km/h 9.7 km/h 90 % 0 mm
00:27 26.7 °C 24.9 °C 1013.1 hPa ESE 3.2 km/h 9.7 km/h 90 % 0 mm
00:32 26.7 °C 24.9 °C 1013.1 hPa SSE 4.8 km/h 9.7 km/h 90 % 0 mm
00:37 26.7 °C 25.1 °C 1013.1 hPa ESE 3.2 km/h 6.4 km/h 91 % 0 mm
00:42 26.7 °C 25.1 °C 1013.1 hPa SE 1.6 km/h 6.4 km/h 91 % 0 mm
00:47 26.6 °C 25 °C 1013.1 hPa ESE 3.2 km/h 6.4 km/h 91 % 0 mm
00:52 26.6 °C 25 °C 1012.8 hPa SSE 4.8 km/h 6.4 km/h 91 % 0 mm
00:57 26.6 °C 25 °C 1012.8 hPa ESE 4.8 km/h 6.4 km/h 91 % 0 mm
01:02 26.6 °C 25 °C 1012.8 hPa ESE 6.4 km/h 6.4 km/h 91 % 0 mm
01:07 26.5 °C 24.9 °C 1012.8 hPa SE 1.6 km/h 8 km/h 91 % 0 mm
01:12 26.4 °C 24.8 °C 1012.4 hPa East 1.6 km/h 8 km/h 91 % 0 mm
01:17 26.4 °C 24.8 °C 1012.8 hPa East 4.8 km/h 8 km/h 91 % 0 mm
01:22 26.3 °C 24.7 °C 1012.8 hPa SE 1.6 km/h 4.8 km/h 91 % 0 mm
01:27 26.3 °C 24.7 °C 1012.8 hPa ESE 1.6 km/h 4.8 km/h 91 % 0 mm
01:32 26.2 °C 24.8 °C 1012.8 hPa Calm   4.8 km/h 92 % 0 mm
01:37 26.2 °C 24.8 °C 1012.8 hPa Calm   4.8 km/h 92 % 0 mm
01:42 26.2 °C 24.8 °C 1012.8 hPa Calm   4.8 km/h 92 % 0 mm
01:47 26.2 °C 24.8 °C 1012.8 hPa SE 1.6 km/h 4.8 km/h 92 % 0 mm
01:52 26.1 °C 24.7 °C 1012.4 hPa SE 4.8 km/h 4.8 km/h 92 % 0 mm
01:54 26.1 °C 24.7 °C 1012.4 hPa SE 1.6 km/h 3.2 km/h 92 % 0 mm
01:59 26.1 °C 24.7 °C 1012.4 hPa East 1.6 km/h 6.4 km/h 92 % 0 mm
02:04 26.1 °C 24.7 °C 1012.4 hPa East 1.6 km/h 6.4 km/h 92 % 0 mm
02:09 26 °C 24.6 °C 1012.4 hPa ESE 3.2 km/h 6.4 km/h 92 % 0 mm
02:14 25.9 °C 24.5 °C 1012.4 hPa SE 1.6 km/h 3.2 km/h 92 % 0 mm
02:19 25.9 °C 24.7 °C 1012.1 hPa Calm   3.2 km/h 93 % 0 mm
02:24 25.9 °C 24.7 °C 1012.1 hPa ESE 1.6 km/h 3.2 km/h 93 % 0 mm
02:29 25.8 °C 24.6 °C 1012.1 hPa Calm   4.8 km/h 93 % 0 mm
02:34 25.8 °C 24.6 °C 1012.4 hPa Calm   4.8 km/h 93 % 0 mm
02:39 25.8 °C 24.6 °C 1012.4 hPa Calm   4.8 km/h 93 % 0 mm
02:44 25.7 °C 24.5 °C 1012.1 hPa Calm   3.2 km/h 93 % 0 mm
02:49 25.7 °C 24.5 °C 1012.1 hPa ESE 3.2 km/h 4.8 km/h 93 % 0 mm
02:54 25.7 °C 24.7 °C 1012.1 hPa ESE 3.2 km/h 4.8 km/h 94 % 0 mm
02:59 25.7 °C 24.7 °C 1012.1 hPa Calm   4.8 km/h 94 % 0 mm
03:04 25.7 °C 24.7 °C 1012.1 hPa Calm   4.8 km/h 94 % 0 mm
03:09 25.7 °C 24.7 °C 1012.1 hPa Calm   3.2 km/h 94 % 0 mm
03:14 25.6 °C 24.6 °C 1012.1 hPa Calm   3.2 km/h 94 % 0 mm
03:19 25.6 °C 24.6 °C 1012.1 hPa Calm   3.2 km/h 94 % 0 mm
03:24 25.6 °C 24.6 °C 1012.1 hPa Calm   1.6 km/h 94 % 0 mm
03:29 25.6 °C 24.6 °C 1012.1 hPa Calm   1.6 km/h 94 % 0 mm
03:34 25.5 °C 24.5 °C 1012.1 hPa Calm   1.6 km/h 94 % 0 mm
03:39 25.5 °C 24.5 °C 1012.1 hPa Calm   1.6 km/h 94 % 0 mm
03:44 25.4 °C 24.5 °C 1012.1 hPa ESE 1.6 km/h 1.6 km/h 95 % 0 mm
03:49 25.4 °C 24.5 °C 1011.7 hPa Calm   1.6 km/h 95 % 0 mm
03:54 25.4 °C 24.5 °C 1011.7 hPa Calm   1.6 km/h 95 % 0 mm
03:59 25.4 °C 24.5 °C 1012.1 hPa Calm   1.6 km/h 95 % 0 mm
04:04 25.4 °C 24.5 °C 1011.7 hPa Calm   1.6 km/h 95 % 0 mm
04:09 25.4 °C 24.5 °C 1012.1 hPa Calm   1.6 km/h 95 % 0 mm
04:14 25.4 °C 24.5 °C 1012.1 hPa Calm   1.6 km/h 95 % 0 mm
04:19 25.5 °C 24.6 °C 1012.1 hPa Calm   1.6 km/h 95 % 0 mm
04:24 25.6 °C 24.7 °C 1012.1 hPa ESE 1.6 km/h 1.6 km/h 95 % 0 mm
04:29 25.6 °C 24.7 °C 1012.1 hPa Calm   3.2 km/h 95 % 0 mm
04:30 25.6 °C 24.7 °C 1012.1 hPa Calm   3.2 km/h 95 % 0 mm
04:35 25.6 °C 24.7 °C 1012.1 hPa East 3.2 km/h 4.8 km/h 95 % 0 mm
04:40 25.6 °C 24.7 °C 1012.1 hPa Calm   4.8 km/h 95 % 0 mm
04:45 25.7 °C 24.8 °C 1012.1 hPa Calm   4.8 km/h 95 % 0 mm
04:50 25.7 °C 24.8 °C 1012.1 hPa Calm   4.8 km/h 95 % 0 mm
04:55 25.7 °C 24.8 °C 1012.1 hPa Calm   3.2 km/h 95 % 0 mm
05:00 25.8 °C 24.9 °C 1012.1 hPa Calm   4.8 km/h 95 % 0 mm
05:05 25.8 °C 24.9 °C 1011.7 hPa SE 1.6 km/h 4.8 km/h 95 % 0 mm
05:08 25.8 °C 24.9 °C 1012.1 hPa Calm   4.8 km/h 95 % 0 mm
05:13 25.8 °C 24.9 °C 1012.1 hPa SE 1.6 km/h 4.8 km/h 95 % 0 mm
05:18 25.8 °C 24.9 °C 1012.1 hPa Calm   3.2 km/h 95 % 0 mm
05:23 25.8 °C 24.9 °C 1012.1 hPa Calm   3.2 km/h 95 % 0 mm
05:28 25.8 °C 24.9 °C 1012.1 hPa Calm   3.2 km/h 95 % 0 mm
05:33 25.7 °C 24.8 °C 1012.1 hPa Calm   3.2 km/h 95 % 0 mm
05:38 25.7 °C 24.8 °C 1012.1 hPa Calm   3.2 km/h 95 % 0 mm
05:43 25.7 °C 24.8 °C 1012.1 hPa Calm   3.2 km/h 95 % 0 mm
05:44 25.7 °C 24.8 °C 1012.1 hPa SE 1.6 km/h 3.2 km/h 95 % 0 mm
05:49 25.7 °C 24.8 °C 1012.1 hPa East 1.6 km/h 3.2 km/h 95 % 0 mm
05:54 25.7 °C 24.8 °C 1012.1 hPa Calm   3.2 km/h 95 % 0 mm
05:59 25.7 °C 24.8 °C 1012.1 hPa Calm   3.2 km/h 95 % 0 mm
06:04 25.6 °C 24.7 °C 1012.1 hPa Calm   3.2 km/h 95 % 0 mm
06:09 25.6 °C 24.7 °C 1012.4 hPa Calm   1.6 km/h 95 % 0 mm
06:14 25.5 °C 24.6 °C 1012.4 hPa Calm   1.6 km/h 95 % 0 mm
06:19 25.4 °C 24.5 °C 1012.4 hPa Calm   1.6 km/h 95 % 0 mm
06:24 25.4 °C 24.5 °C 1012.4 hPa Calm   1.6 km/h 95 % 0 mm
06:29 25.3 °C 24.4 °C 1012.4 hPa Calm   1.6 km/h 95 % 0 mm
06:34 25.4 °C 24.5 °C 1012.4 hPa Calm   1.6 km/h 95 % 0 mm
06:39 25.4 °C 24.7 °C 1012.8 hPa Calm   1.6 km/h 96 % 0 mm
06:44 25.4 °C 24.5 °C 1012.4 hPa Calm   1.6 km/h 95 % 0 mm
06:49 25.4 °C 24.7 °C 1012.8 hPa Calm   1.6 km/h 96 % 0 mm
06:54 25.5 °C 24.8 °C 1012.8 hPa Calm   3.2 km/h 96 % 0 mm
06:59 25.6 °C 24.9 °C 1012.8 hPa Calm   3.2 km/h 96 % 0 mm
07:04 25.7 °C 25 °C 1012.8 hPa Calm   3.2 km/h 96 % 0 mm
07:09 25.8 °C 24.9 °C 1012.8 hPa Calm   3.2 km/h 95 % 0 mm
07:14 25.9 °C 25 °C 1012.8 hPa Calm   4.8 km/h 95 % 0 mm
07:19 26 °C 25.1 °C 1012.8 hPa East 4.8 km/h 4.8 km/h 95 % 0 mm
07:24 26 °C 25.1 °C 1012.8 hPa Calm   4.8 km/h 95 % 0 mm
07:29 26.1 °C 25.2 °C 1012.8 hPa Calm   4.8 km/h 95 % 0 mm
07:34 26.2 °C 25.2 °C 1012.8 hPa Calm   4.8 km/h 94 % 0 mm
07:39 26.4 °C 25.4 °C 1012.8 hPa Calm   4.8 km/h 94 % 0 mm
07:44 26.6 °C 25.6 °C 1012.8 hPa SE 1.6 km/h 4.8 km/h 94 % 0 mm
07:49 26.8 °C 25.6 °C 1012.8 hPa SSE 1.6 km/h 6.4 km/h 93 % 0 mm
07:54 26.9 °C 25.7 °C 1013.1 hPa SE 3.2 km/h 6.4 km/h 93 % 0 mm
07:59 27.1 °C 25.7 °C 1013.1 hPa ESE 4.8 km/h 8 km/h 92 % 0 mm
08:04 27.1 °C 25.5 °C 1013.1 hPa SSE 3.2 km/h 8 km/h 91 % 0 mm
08:09 27.3 °C 25.7 °C 1013.4 hPa SSE 1.6 km/h 9.7 km/h 91 % 0 mm
08:14 27.4 °C 25.6 °C 1013.4 hPa SSE 8 km/h 9.7 km/h 90 % 0 mm
08:19 27.5 °C 25.7 °C 1013.4 hPa East 3.2 km/h 9.7 km/h 90 % 0 mm
08:25 27.6 °C 25.6 °C 1013.4 hPa SSE 4.8 km/h 11.3 km/h 89 % 0 mm
08:30 27.6 °C 25.4 °C 1013.4 hPa East 12.9 km/h 12.9 km/h 88 % 0 mm
08:35 27.6 °C 25.2 °C 1013.4 hPa ESE 4.8 km/h 14.5 km/h 87 % 0 mm
08:40 27.6 °C 25.2 °C 1013.4 hPa SE 4.8 km/h 14.5 km/h 87 % 0 mm
08:45 27.8 °C 25.4 °C 1013.4 hPa ENE 4.8 km/h 17.7 km/h 87 % 0 mm
08:50 28.2 °C 25.6 °C 1013.4 hPa East 9.7 km/h 17.7 km/h 86 % 0 mm
08:55 28.4 °C 25.4 °C 1013.4 hPa ESE 8 km/h 17.7 km/h 84 % 0 mm
09:00 28.6 °C 25.4 °C 1013.4 hPa SE 6.4 km/h 14.5 km/h 83 % 0 mm
09:05 28.8 °C 25.2 °C 1013.4 hPa SSE 3.2 km/h 11.3 km/h 81 % 0 mm
09:10 29.2 °C 25.6 °C 1013.4 hPa SE 1.6 km/h 11.3 km/h 81 % 0 mm
09:15 29.3 °C 25.3 °C 1013.8 hPa SW 8 km/h 11.3 km/h 79 % 0 mm
09:20 29 °C 24.8 °C 1013.8 hPa SSE 4.8 km/h 11.3 km/h 78 % 0 mm
09:25 28.8 °C 24.6 °C 1013.8 hPa SSW 3.2 km/h 11.3 km/h 78 % 0 mm
09:30 28.6 °C 24.6 °C 1013.8 hPa SW 6.4 km/h 11.3 km/h 79 % 0 mm
09:35 28.4 °C 24.4 °C 1013.8 hPa South 8 km/h 11.3 km/h 79 % 0 mm
09:40 28.5 °C 24.1 °C 1013.4 hPa SSE 3.2 km/h 11.3 km/h 77 % 0 mm
09:45 28.8 °C 24.4 °C 1013.8 hPa South 9.7 km/h 11.3 km/h 77 % 0 mm
09:50 29.2 °C 24.1 °C 1013.4 hPa SSE 6.4 km/h 14.5 km/h 74 % 0 mm
09:55 29.7 °C 24.1 °C 1013.4 hPa SE 11.3 km/h 14.5 km/h 72 % 0 mm
10:00 29.8 °C 24 °C 1013.4 hPa ESE 16.1 km/h 19.3 km/h 71 % 0 mm
10:05 30 °C 24.2 °C 1013.4 hPa SSE 9.7 km/h 19.3 km/h 71 % 0 mm
10:10 30.3 °C 24.2 °C 1013.4 hPa ENE 4.8 km/h 19.3 km/h 70 % 0 mm
10:15 30.3 °C 24 °C 1013.4 hPa East 8 km/h 17.7 km/h 69 % 0 mm
10:20 30.4 °C 23.6 °C 1013.4 hPa ESE 8 km/h 16.1 km/h 67 % 0 mm
10:25 30.6 °C 23.8 °C 1013.4 hPa SSE 3.2 km/h 17.7 km/h 67 % 0 mm
10:30 30.8 °C 23.7 °C 1013.4 hPa SE 4.8 km/h 17.7 km/h 66 % 0 mm
10:35 30.8 °C 24 °C 1013.4 hPa SE 3.2 km/h 17.7 km/h 67 % 0 mm
10:40 30.9 °C 23.5 °C 1013.4 hPa East 9.7 km/h 16.1 km/h 65 % 0 mm
10:45 30.9 °C 24.1 °C 1013.4 hPa SE 4.8 km/h 16.1 km/h 67 % 0 mm
10:50 30.9 °C 23.8 °C 1013.4 hPa SSE 4.8 km/h 16.1 km/h 66 % 0 mm
10:55 31.1 °C 24.2 °C 1013.4 hPa SSE 6.4 km/h 16.1 km/h 67 % 0 mm
11:00 31.2 °C 24.1 °C 1013.4 hPa South 6.4 km/h 14.5 km/h 66 % 0 mm
11:05 31.3 °C 24.4 °C 1013.4 hPa SSE 8 km/h 14.5 km/h 67 % 0 mm
11:10 31.5 °C 24.1 °C 1013.4 hPa SSE 12.9 km/h 12.9 km/h 65 % 0 mm
11:15 31.6 °C 24 °C 1013.4 hPa SSE 6.4 km/h 12.9 km/h 64 % 0 mm
11:20 31.6 °C 23.7 °C 1013.4 hPa SE 8 km/h 16.1 km/h 63 % 0 mm
11:25 31.7 °C 24 °C 1013.4 hPa SSW 1.6 km/h 16.1 km/h 64 % 0 mm
11:30 32 °C 23.8 °C 1013.4 hPa SE 12.9 km/h 16.1 km/h 62 % 0 mm
11:32 32 °C 23.5 °C 1013.4 hPa SSE 9.7 km/h 16.1 km/h 61 % 0 mm
11:37 31.6 °C 23.2 °C 1013.4 hPa SE 3.2 km/h 16.1 km/h 61 % 0 mm
11:42 31.7 °C 23.5 °C 1013.4 hPa SSW 4.8 km/h 16.1 km/h 62 % 0 mm
11:47 31.9 °C 23.7 °C 1013.4 hPa ESE 17.7 km/h 17.7 km/h 62 % 0 mm
11:52 31.7 °C 24 °C 1013.4 hPa SSE 6.4 km/h 17.7 km/h 64 % 0 mm
11:53 31.7 °C 23.5 °C 1013.4 hPa ESE 9.7 km/h 17.7 km/h 62 % 0 mm
11:58 31.9 °C 23.7 °C 1013.4 hPa SE 11.3 km/h 17.7 km/h 62 % 0 mm
12:03 31.9 °C 23.7 °C 1013.4 hPa ESE 9.7 km/h 17.7 km/h 62 % 0 mm
12:08 31.9 °C 23.4 °C 1013.4 hPa East 3.2 km/h 17.7 km/h 61 % 0 mm
12:13 31.7 °C 23.5 °C 1013.4 hPa SE 9.7 km/h 17.7 km/h 62 % 0 mm
12:18 31.6 °C 25 °C 1013.4 hPa SE 8 km/h 17.7 km/h 68 % 0 mm
12:23 31.5 °C 25.1 °C 1013.1 hPa SE 8 km/h 17.7 km/h 69 % 0 mm
12:28 31.3 °C 24.9 °C 1013.4 hPa East 4.8 km/h 22.5 km/h 69 % 0 mm
12:33 31.3 °C 25.2 °C 1013.4 hPa SE 11.3 km/h 22.5 km/h 70 % 0 mm
12:38 31.2 °C 24.6 °C 1013.4 hPa NE 8 km/h 22.5 km/h 68 % 0 mm
12:43 31.3 °C 24.7 °C 1013.1 hPa ESE 4.8 km/h 22.5 km/h 68 % 0 mm
12:48 31.4 °C 24.5 °C 1013.4 hPa ESE 9.7 km/h 22.5 km/h 67 % 0 mm
12:53 31.2 °C 24.1 °C 1013.1 hPa SE 6.4 km/h 16.1 km/h 66 % 0 mm
12:58 31.1 °C 24.5 °C 1013.1 hPa SE 11.3 km/h 17.7 km/h 68 % 0 mm
13:03 31 °C 24.6 °C 1013.1 hPa South 4.8 km/h 20.9 km/h 69 % 0 mm
13:08 31 °C 24.4 °C 1013.1 hPa East 8 km/h 20.9 km/h 68 % 0 mm
13:13 30.9 °C 24.3 °C 1013.1 hPa SSE 11.3 km/h 20.9 km/h 68 % 0 mm
13:14 30.9 °C 24.3 °C 1013.1 hPa SE 11.3 km/h 20.9 km/h 68 % 0 mm
13:19 30.8 °C 24.7 °C 1013.1 hPa South 6.4 km/h 20.9 km/h 70 % 0 mm
13:24 31.3 °C 25.2 °C 1013.1 hPa SSE 6.4 km/h 20.9 km/h 70 % 0 mm
13:29 31.6 °C 25.5 °C 1013.1 hPa East 8 km/h 20.9 km/h 70 % 0 mm
13:34 31.8 °C 24.7 °C 1012.8 hPa SSE 4.8 km/h 17.7 km/h 66 % 0 mm
13:39 31.8 °C 24.7 °C 1012.8 hPa ESE 6.4 km/h 20.9 km/h 66 % 0 mm
13:44 32.1 °C 24.7 °C 1012.8 hPa ESE 8 km/h 20.9 km/h 65 % 0 mm
13:49 32.3 °C 24.6 °C 1012.8 hPa NE 4.8 km/h 20.9 km/h 64 % 0 mm
13:54 32.1 °C 24.4 °C 1012.8 hPa ESE 12.9 km/h 14.5 km/h 64 % 0 mm
13:59 31.9 °C 24.2 °C 1012.8 hPa ESE 3.2 km/h 19.3 km/h 64 % 0 mm
14:04 32 °C 24.3 °C 1012.8 hPa ENE 6.4 km/h 19.3 km/h 64 % 0 mm
14:09 32.1 °C 24.7 °C 1012.8 hPa East 4.8 km/h 19.3 km/h 65 % 0 mm
14:14 32.1 °C 24.9 °C 1012.4 hPa ESE 8 km/h 17.7 km/h 66 % 0 mm
14:19 32.6 °C 25.2 °C 1012.4 hPa ESE 8 km/h 17.7 km/h 65 % 0 mm
14:24 32.5 °C 24.8 °C 1012.4 hPa ESE 3.2 km/h 16.1 km/h 64 % 0 mm
14:29 32.3 °C 24.9 °C 1012.4 hPa SE 4.8 km/h 16.1 km/h 65 % 0 mm
14:31 32.2 °C 24.8 °C 1012.4 hPa SSE 9.7 km/h 12.9 km/h 65 % 0 mm
14:36 32.2 °C 24.5 °C 1012.4 hPa ESE 6.4 km/h 19.3 km/h 64 % 0 mm
14:41 32.1 °C 24.4 °C 1012.4 hPa SE 6.4 km/h 19.3 km/h 64 % 0 mm
14:42 32.1 °C 24.4 °C 1012.4 hPa NNE 4.8 km/h 19.3 km/h 64 % 0 mm
14:52 32.2 °C 24.8 °C 1012.4 hPa SE 6.4 km/h 22.5 km/h 65 % 0 mm
14:57 32.1 °C 24.9 °C 1012.1 hPa SE 6.4 km/h 22.5 km/h 66 % 0 mm
15:02 31.9 °C 25 °C 1012.1 hPa ESE 11.3 km/h 22.5 km/h 67 % 0 mm
15:07 32.2 °C 25.3 °C 1012.1 hPa ESE 12.9 km/h 22.5 km/h 67 % 0 mm
15:12 32.2 °C 25.3 °C 1011.7 hPa SE 16.1 km/h 22.5 km/h 67 % 0 mm
15:17 32.3 °C 24.9 °C 1011.7 hPa South 3.2 km/h 20.9 km/h 65 % 0 mm
15:22 32.2 °C 24.8 °C 1011.7 hPa East 9.7 km/h 20.9 km/h 65 % 0 mm
15:27 32.4 °C 25 °C 1011.7 hPa ESE 11.3 km/h 20.9 km/h 65 % 0 mm
15:32 32.6 °C 24.9 °C 1011.7 hPa SE 4.8 km/h 19.3 km/h 64 % 0 mm
15:37 32.6 °C 24.9 °C 1011.4 hPa SE 4.8 km/h 17.7 km/h 64 % 0 mm
15:42 32.9 °C 25.2 °C 1011.4 hPa ESE 9.7 km/h 19.3 km/h 64 % 0 mm
15:47 32.7 °C 25.5 °C 1011.7 hPa ESE 9.7 km/h 19.3 km/h 66 % 0 mm
15:52 32.6 °C 25.9 °C 1011.4 hPa SSE 3.2 km/h 19.3 km/h 68 % 0 mm
15:57 32.6 °C 25.2 °C 1011.4 hPa ESE 3.2 km/h 17.7 km/h 65 % 0 mm
16:02 32.9 °C 25.4 °C 1011.4 hPa SSE 9.7 km/h 17.7 km/h 65 % 0 mm
16:07 32.7 °C 25.3 °C 1011.4 hPa ESE 16.1 km/h 17.7 km/h 65 % 0 mm
16:12 32.4 °C 25 °C 1011.4 hPa ESE 11.3 km/h 17.7 km/h 65 % 0 mm
16:17 32.3 °C 25.6 °C 1011.4 hPa ESE 9.7 km/h 19.3 km/h 68 % 0 mm
16:22 32.6 °C 25.2 °C 1011.4 hPa SE 12.9 km/h 19.3 km/h 65 % 0 mm
16:27 32.3 °C 25.4 °C 1011.4 hPa ESE 9.7 km/h 19.3 km/h 67 % 0 mm
16:32 32.3 °C 24.9 °C 1011.4 hPa SSE 6.4 km/h 19.3 km/h 65 % 0 mm
16:37 32.3 °C 25.4 °C 1011.4 hPa ESE 11.3 km/h 19.3 km/h 67 % 0 mm
16:42 32.4 °C 25.7 °C 1011.1 hPa East 8 km/h 19.3 km/h 68 % 0 mm
16:47 32.8 °C 25.6 °C 1011.1 hPa SE 11.3 km/h 19.3 km/h 66 % 0 mm
16:52 32.7 °C 25.3 °C 1011.1 hPa East 1.6 km/h 19.3 km/h 65 % 0 mm
16:57 32.6 °C 25.2 °C 1011.1 hPa SSE 6.4 km/h 19.3 km/h 65 % 0 mm
17:02 32.4 °C 24.7 °C 1011.1 hPa ENE 6.4 km/h 22.5 km/h 64 % 0 mm
17:03 32.4 °C 24.7 °C 1011.1 hPa SE 9.7 km/h 22.5 km/h 64 % 0 mm
17:08 32.5 °C 25.1 °C 1011.1 hPa ESE 14.5 km/h 22.5 km/h 65 % 0 mm
17:13 32.4 °C 24.7 °C 1011.1 hPa ESE 16.1 km/h 22.5 km/h 64 % 0 mm
17:18 32.2 °C 25 °C 1011.1 hPa SE 9.7 km/h 20.9 km/h 66 % 0 mm
17:23 31.8 °C 25.2 °C 1011.4 hPa SE 14.5 km/h 22.5 km/h 68 % 0 mm
17:28 31.2 °C 25.3 °C 1011.4 hPa East 11.3 km/h 22.5 km/h 71 % 0 mm
17:33 31.2 °C 25.5 °C 1011.1 hPa SSE 8 km/h 22.5 km/h 72 % 0 mm
17:38 31.2 °C 25.5 °C 1011.1 hPa SE 11.3 km/h 22.5 km/h 72 % 0 mm
17:43 31 °C 25.1 °C 1011.1 hPa SE 11.3 km/h 20.9 km/h 71 % 0 mm
17:48 30.8 °C 25.2 °C 1011.1 hPa ESE 14.5 km/h 22.5 km/h 72 % 0 mm
17:53 31.1 °C 25.5 °C 1011.1 hPa East 6.4 km/h 22.5 km/h 72 % 0 mm
17:58 31.3 °C 25.2 °C 1011.1 hPa SE 9.7 km/h 22.5 km/h 70 % 0 mm
18:03 31.2 °C 25.1 °C 1011.1 hPa South 11.3 km/h 20.9 km/h 70 % 0 mm
18:08 31.2 °C 25.3 °C 1011.1 hPa SE 8 km/h 24.1 km/h 71 % 0 mm
18:13 31.2 °C 25.3 °C 1011.1 hPa SSE 19.3 km/h 24.1 km/h 71 % 0 mm
18:18 31.3 °C 25.2 °C 1011.1 hPa ESE 12.9 km/h 24.1 km/h 70 % 0 mm
18:23 31.1 °C 25 °C 1011.1 hPa SSE 19.3 km/h 25.7 km/h 70 % 0 mm
18:28 31 °C 24.9 °C 1011.1 hPa SE 16.1 km/h 25.7 km/h 70 % 0 mm
18:33 30.8 °C 25.2 °C 1011.1 hPa SE 4.8 km/h 25.7 km/h 72 % 0 mm
18:38 30.7 °C 24.8 °C 1011.1 hPa ESE 6.4 km/h 22.5 km/h 71 % 0 mm
18:43 30.8 °C 24.9 °C 1011.1 hPa SSE 8 km/h 24.1 km/h 71 % 0 mm
18:48 30.8 °C 24.7 °C 1011.1 hPa ESE 8 km/h 24.1 km/h 70 % 0 mm
18:53 30.8 °C 24.9 °C 1011.1 hPa SSE 16.1 km/h 24.1 km/h 71 % 0 mm
18:58 30.8 °C 24.9 °C 1011.1 hPa SE 9.7 km/h 20.9 km/h 71 % 0 mm
19:03 30.7 °C 24.8 °C 1011.1 hPa SE 9.7 km/h 24.1 km/h 71 % 0 mm
19:08 30.5 °C 24.6 °C 1011.1 hPa SE 16.1 km/h 24.1 km/h 71 % 0 mm
19:13 30.4 °C 24.8 °C 1011.1 hPa SE 12.9 km/h 27.4 km/h 72 % 0 mm
19:18 30.3 °C 24.7 °C 1011.1 hPa South 11.3 km/h 27.4 km/h 72 % 0 mm
19:23 30.2 °C 24.6 °C 1011.1 hPa SE 8 km/h 27.4 km/h 72 % 0 mm
19:28 30.2 °C 24.8 °C 1011.1 hPa SE 11.3 km/h 20.9 km/h 73 % 0 mm
19:33 30.1 °C 25 °C 1011.1 hPa SE 8 km/h 17.7 km/h 74 % 0 mm
19:38 30 °C 24.9 °C 1011.4 hPa ESE 12.9 km/h 17.7 km/h 74 % 0 mm
19:43 29.8 °C 24.9 °C 1011.4 hPa ESE 8 km/h 19.3 km/h 75 % 0 mm
19:48 29.7 °C 24.8 °C 1011.4 hPa SE 11.3 km/h 19.3 km/h 75 % 0 mm
19:53 29.6 °C 24.7 °C 1011.4 hPa ESE 11.3 km/h 25.7 km/h 75 % 0 mm
19:58 29.6 °C 24.9 °C 1011.4 hPa SE 4.8 km/h 25.7 km/h 76 % 0 mm
20:03 29.4 °C 24.7 °C 1011.4 hPa SSE 9.7 km/h 25.7 km/h 76 % 0 mm
20:08 29.4 °C 24.9 °C 1011.4 hPa SE 11.3 km/h 24.1 km/h 77 % 0 mm
20:13 29.4 °C 24.9 °C 1011.7 hPa SE 12.9 km/h 24.1 km/h 77 % 0 mm
20:18 29.3 °C 25.1 °C 1011.7 hPa East 9.7 km/h 24.1 km/h 78 % 0 mm
20:23 29.2 °C 25.2 °C 1011.4 hPa ENE 11.3 km/h 17.7 km/h 79 % 0 mm
20:28 29.1 °C 25.1 °C 1011.7 hPa ESE 9.7 km/h 17.7 km/h 79 % 0 mm
20:33 29 °C 25 °C 1011.7 hPa SSE 3.2 km/h 17.7 km/h 79 % 0 mm
20:38 28.9 °C 24.9 °C 1011.7 hPa SSE 8 km/h 17.7 km/h 79 % 0 mm
20:43 28.8 °C 24.8 °C 1011.7 hPa SE 11.3 km/h 14.5 km/h 79 % 0 mm
20:48 28.7 °C 24.9 °C 1011.7 hPa East 9.7 km/h 19.3 km/h 80 % 0 mm
20:53 28.7 °C 24.9 °C 1011.7 hPa SE 6.4 km/h 19.3 km/h 80 % 0 mm
20:58 28.7 °C 25.1 °C 1011.7 hPa SE 4.8 km/h 19.3 km/h 81 % 0 mm
21:03 28.6 °C 25 °C 1012.1 hPa SE 8 km/h 20.9 km/h 81 % 0 mm
21:08 28.5 °C 24.9 °C 1011.7 hPa ESE 8 km/h 20.9 km/h 81 % 0 mm
21:13 28.4 °C 25 °C 1012.1 hPa SE 12.9 km/h 20.9 km/h 82 % 0 mm
21:18 28.3 °C 24.9 °C 1012.1 hPa ESE 9.7 km/h 20.9 km/h 82 % 0 mm
21:23 28.3 °C 25.1 °C 1012.1 hPa East 11.3 km/h 20.9 km/h 83 % 0 mm
21:29 28.2 °C 25 °C 1012.1 hPa SE 6.4 km/h 16.1 km/h 83 % 0 mm
21:31 28.2 °C 25 °C 1012.1 hPa East 8 km/h 16.1 km/h 83 % 0 mm
21:36 28.2 °C 25 °C 1012.1 hPa ESE 19.3 km/h 19.3 km/h 83 % 0 mm
21:41 28.1 °C 24.9 °C 1012.4 hPa SSE 11.3 km/h 19.3 km/h 83 % 0 mm
21:46 28.1 °C 24.9 °C 1012.4 hPa SE 4.8 km/h 19.3 km/h 83 % 0 mm
21:51 28.1 °C 24.9 °C 1012.4 hPa SE 6.4 km/h 19.3 km/h 83 % 0 mm
21:56 28 °C 24.8 °C 1012.4 hPa ESE 8 km/h 16.1 km/h 83 % 0 mm
22:01 28 °C 24.8 °C 1012.8 hPa ESE 9.7 km/h 19.3 km/h 83 % 0 mm
22:06 27.9 °C 24.9 °C 1012.8 hPa ESE 4.8 km/h 19.3 km/h 84 % 0 mm
22:11 27.9 °C 24.9 °C 1012.8 hPa ESE 9.7 km/h 19.3 km/h 84 % 0 mm
22:17 27.8 °C 24.8 °C 1012.8 hPa SSE 6.4 km/h 14.5 km/h 84 % 0 mm
22:22 27.8 °C 25 °C 1012.8 hPa ESE 9.7 km/h 14.5 km/h 85 % 0 mm
22:27 27.7 °C 24.9 °C 1012.8 hPa SSE 9.7 km/h 14.5 km/h 85 % 0 mm
22:32 27.7 °C 24.9 °C 1013.1 hPa East 8 km/h 14.5 km/h 85 % 0 mm
22:37 27.7 °C 25.1 °C 1013.1 hPa ESE 6.4 km/h 16.1 km/h 86 % 0 mm
22:42 27.6 °C 25 °C 1013.1 hPa ESE 6.4 km/h 17.7 km/h 86 % 0 mm
22:47 27.6 °C 25 °C 1013.1 hPa SE 8 km/h 17.7 km/h 86 % 0 mm
22:52 27.6 °C 25 °C 1013.1 hPa East 3.2 km/h 17.7 km/h 86 % 0 mm
22:57 27.5 °C 25.1 °C 1013.4 hPa ESE 8 km/h 11.3 km/h 87 % 0 mm
23:02 27.4 °C 25 °C 1013.1 hPa ENE 4.8 km/h 12.9 km/h 87 % 0 mm
23:07 27.4 °C 25 °C 1013.1 hPa SSW 3.2 km/h 12.9 km/h 87 % 0 mm
23:08 27.4 °C 25 °C 1013.1 hPa SE 4.8 km/h 12.9 km/h 87 % 0 mm
23:13 27.4 °C 25 °C 1013.1 hPa SE 4.8 km/h 12.9 km/h 87 % 0 mm
23:18 27.3 °C 25.1 °C 1013.1 hPa SE 4.8 km/h 9.7 km/h 88 % 0 mm
23:23 27.3 °C 25.1 °C 1013.1 hPa SE 4.8 km/h 8 km/h 88 % 0 mm
23:28 27.3 °C 25.1 °C 1013.1 hPa SE 6.4 km/h 9.7 km/h 88 % 0 mm
23:33 27.2 °C 25 °C 1013.1 hPa SE 6.4 km/h 9.7 km/h 88 % 0 mm
23:38 27.2 °C 25 °C 1013.1 hPa SE 3.2 km/h 9.7 km/h 88 % 0 mm
23:43 27.2 °C 25.2 °C 1012.8 hPa ESE 3.2 km/h 9.7 km/h 89 % 0 mm
23:48 27.2 °C 25.2 °C 1012.8 hPa East 6.4 km/h 9.7 km/h 89 % 0 mm
23:53 27.1 °C 25.1 °C 1012.8 hPa SE 4.8 km/h 9.7 km/h 89 % 0 mm
23:56 27.1 °C 25.1 °C 1012.8 hPa ENE 9.7 km/h 9.7 km/h 89 % 0 mm
Spring, Texas: Villages of Bridgestone
Compliments of Weather Underground - 3 mb

Script developed by  Jim McMurry - jmcmurry@mwt.net Adapted for the template by  Wim van der Kuil - Leuven-Template.eu

You find our weather info also at:

UK Metoffice

WeatherCloud

Weather Underground

Mid-South Weather Network

AWEKAS

Citizen Weather Observer Program (CWOP)

HAMweather, WeatherForYou, PWS Weather

Equipment we use:

Weather-station
Davis Vantage Vue

Weather-program
Meteohub

Weather-server
Debian 7.9 x86 (Guest)

Provider
DreamHost

Davis Vantage Vue

Meteohub

Debian 7.9 x86 (Guest)

DreamHost